User: anonymous   Login
Location: St. Louis
(38.6270°N, 90.1994°W)
Time: 00:34:12
(UTC-06:00)
Language:

AO-91 - Orbit

View from above orbital plane
View from above orbital plane
View from above satellite
View from above satellite

Ground track
Ground track

The orbit data is extracted from the following two-line orbital elements,

1 43017U 17073E   22027.68556353  .00002356  00000-0  18541-3 0  9995
2 43017  97.6909 287.6148 0251196 288.4701  68.9361 14.80258510226284
Epoch (UTC): 27 January 2022 16:27:12
Eccentricity: 0.0251196
inclination: 97.6909°
perigee height: 452 km
apogee height: 804 km
right ascension of ascending node: 287.6148°
argument of perigee: 288.4701°
revolutions per day: 14.80258510
mean anomaly at epoch: 68.9361°
orbit number at epoch: 22628

The dashed part of the orbit path shows where the satellite is in the earth's shadow,  

DLR